Regional Weather Roundup
Issued by NWS

Home | Current Version | Previous Version | Graphics & Text | Print | Product List | Glossary On
Versions: 1 2 3 4 5 6 7 8 9 10 11 12 13 14 15 16 17 18 19 20 21 22 23 24 25 26 27 28
000
ASUS45 KCYS 031110
RWRWY

WYOMING REGIONAL WEATHER ROUNDUP
NATIONAL WEATHER SERVICE CHEYENNE WY
400 AM MST SAT DEC 03 2016

NOTE:  "FAIR" INDICATES FEW OR NO CLOUDS BELOW 12,000 FEET
WITH NO SIGNIFICANT WEATHER AND/OR OBSTRUCTIONS TO VISIBILITY.

WYZ001-031200-
YELLOWSTONE NATIONAL PARK

CITY           SKY/WX    TMP DP  RH WIND       PRES   REMARKS
LK YELLOWSTONE   N/A     12   9  87 CALM      30.03F
W YELLOWSTONE  NOT AVBL

$$
WYZ002>013-054>058-071-098>099-031200-
NORTHERN WYOMING

CITY           SKY/WX    TMP DP  RH WIND       PRES   REMARKS
JACKSON        CLOUDY    18  16  93 SW14      30.09F WCI   4
CODY           FAIR      30  12  47 W16G33    29.90F WCI  19
GREYBULL       CLOUDY    24  17  74 CALM      29.95
WORLAND        CLOUDY    22  17  81 S7        29.94  WCI  13
SHERIDAN       MOCLDY    21  15  78 CALM      29.88
BUFFALO        FAIR      26   6  42 SW7       29.86F WCI  18
GILLETTE       FAIR      22  14  71 SW16      29.85F WCI   8
NEWCASTLE      FAIR      23  19  86 SE13      29.97F WCI  11

$$
WYZ014>020-022>026-101>103-031200-
CENTRAL WYOMING

CITY           SKY/WX    TMP DP  RH WIND       PRES   REMARKS
BIG PINEY      FAIR       7   4  87 CALM      30.08
PINEDALE       FAIR       9   5  85 NW6       30.07F WCI  -1
DUBOIS         FAIR      19   5  53 N24G33    29.93F WCI   2
LANDER         MOCLDY    16   6  65 NW3       29.93F
RIVERTON       CLOUDY    21   8  57 SW12      29.93  WCI   9
CASPER         FAIR      20  11  68 SW24G30   29.93F WCI   3
DOUGLAS        FAIR      21  12  68 CALM      29.95F

$$
WYZ021-027>030-104>119-031200-
SOUTHERN WYOMING

CITY           SKY/WX    TMP DP  RH WIND       PRES   REMARKS
EVANSTON       CLOUDY    13   8  81 SW12      30.15  WCI  -1
ROCK SPRINGS   MOCLDY    16   9  74 SW25G33   30.10S WCI  -3
DIXON          FAIR      13  10  87 CALM      30.18S
RAWLINS        FAIR      15   8  73 W23G31    30.04F WCI  -3
SARATOGA       FAIR       3   1  92 SE8       30.08F WCI -10
LARAMIE        FAIR       8   2  76 SW17      29.97F WCI -10
CHEYENNE       FAIR      16   9  74 W12       30.00F WCI   3
TORRINGTON     FAIR      23  14  68 SW10      30.03F WCI  12
PINE BLUFFS    CLOUDY    18  18 100 S8        30.05F WCI   7

$$




USA.gov is the U.S. government's official web portal to all federal, state and local government web resources and services.